Terminal Aerodrome Forecast
Issued by NWS Sterling, VA

Home | Current Version | Previous Version | Text Only | Print | Product List | Glossary On
Versions: 1 2 3 4 5 6 7 8 9 10 11 12 13 14 15 16 17 18 19 20 21
693
FTUS41 KLWX 101130 AAB
TAFBWI
TAF AMD
KBWI 101130Z 1012/1118 28007KT P6SM FEW150
     FM101600 29011G17KT P6SM SCT130
     FM102300 29007KT P6SM FEW200
     FM110700 29004KT P6SM BKN110
     FM111600 14004KT P6SM OVC080=

USA.gov is the U.S. government's official web portal to all federal, state and local government web resources and services.